Change the Weather History Date:

Saturday, June 22, 2013

  Actual Average Record
Temperature  
Mean Temperature 56 °F -  
Max Temperature 61 °F 65 °F 73 °F (2005)
Min Temperature 51 °F 52 °F 41 °F (2014)
Degree Days  
Heating Degree Days 9    
Growing Degree Days 6 (Base 50)    
Moisture  
Dew Point 51 °F    
Average Humidity 83    
Maximum Humidity 94    
Minimum Humidity 68    
Precipitation  
Precipitation 0.16 in 0.07 in - ()
Sea Level Pressure  
Sea Level Pressure 29.46 in    
Wind  
Wind Speed 16 mph ()    
Max Wind Speed 29 mph    
Max Gust Speed 40 mph    
Visibility 6.5 miles    
Events Rain    
Averages and records for this station are not official NWS values.
T = Trace of Precipitation, MM = Missing Value Source: Averaged Metar Reports

Daily Weather History Graph

Daily Weather History Graph

Search for Another Location

Airport or City:

Trip Planner

Search our weather history database for the weather conditions in past years. The results will help you decide how hot, cold, wet, or windy it might be!

Date:

Astronomy

Jun. 22, 2013 Rise Set
Actual Time 4:56 AM IST 9:57 PM IST
Civil Twilight 4:03 AM IST 10:50 PM IST
Nautical Twilight 2:28 AM IST 12:25 AM IST
Astronomical Twilight Sun does not rise Sun does not rise
Moon 8:47 PM IST (6/22) 4:06 AM IST (6/22)
Length of Visible Light 18h 46m
Length of Day
17h 01m
Waxing Gibbous, 98% of the Moon is Illuminated
Jun 22
Waxing Gibbous
Jun 23
Full
Jun 30
Last Quarter
Jul 8
New
Jul 16
First Quarter

Hourly Weather History & Observations

Time (IST) Temp. Dew Point Humidity Pressure Visibility Wind Dir Wind Speed Gust Speed Precip Events Conditions
12:00 AM 55.4 °F 51.8 °F 88% 29.59 in 6.2 mi SSW 15.0 mph - N/A   Mostly Cloudy
12:30 AM 55.4 °F 51.8 °F 88% 29.56 in 6.2 mi SSW 15.0 mph - N/A   Mostly Cloudy
1:00 AM 55 °F 53 °F 88% 29.57 in 12 mi SSW 11.2 mph - - Rain Light Rain
1:00 AM 55.4 °F 51.8 °F 88% 29.56 in 6.2 mi SSW 12.7 mph - N/A   Mostly Cloudy
1:30 AM 55.4 °F 51.8 °F 88% 29.53 in 6.2 mi SSW 11.5 mph - N/A   Mostly Cloudy
2:00 AM 55.4 °F 51.8 °F 88% 29.53 in 6.2 mi SSW 10.4 mph - N/A   Mostly Cloudy
2:30 AM 55.4 °F 50.0 °F 82% 29.50 in 6.2 mi SSW 11.5 mph - N/A   Mostly Cloudy
3:00 AM 55.4 °F 50.0 °F 82% 29.47 in 6.2 mi SSW 10.4 mph - N/A   Mostly Cloudy
3:30 AM 55.4 °F 50.0 °F 82% 29.47 in 6.2 mi SSW 9.2 mph - N/A   Mostly Cloudy
4:00 AM 55.4 °F 50.0 °F 82% 29.47 in 6.2 mi SSW 15.0 mph - N/A Rain Light Rain
4:30 AM 55.4 °F 50.0 °F 82% 29.47 in 6.2 mi SSW 15.0 mph - N/A   Mostly Cloudy
5:00 AM 53.6 °F 50.0 °F 88% 29.44 in 6.2 mi SW 13.8 mph - N/A Rain Light Rain
5:30 AM 51.8 °F 50.0 °F 94% 29.47 in 3.7 mi WSW 13.8 mph - N/A Rain Light Rain
6:00 AM 51.8 °F 50.0 °F 94% 29.44 in 3.7 mi SW 9.2 mph - N/A Rain Light Rain
6:30 AM 51.8 °F 48.2 °F 88% 29.44 in 6.2 mi SW 16.1 mph - N/A   Mostly Cloudy
7:00 AM 52 °F 49 °F 85% 29.45 in 19 mi SW 13.4 mph - - Rain Light Rain
7:00 AM 51.8 °F 48.2 °F 88% 29.44 in 6.2 mi SW 13.8 mph - N/A   Mostly Cloudy
7:30 AM 53.6 °F 50.0 °F 88% 29.44 in 6.2 mi SW 15.0 mph 26.5 mph N/A   Mostly Cloudy
8:00 AM 53.6 °F 48.2 °F 82% 29.44 in 6.2 mi WSW 19.6 mph - N/A   Mostly Cloudy
8:30 AM 53.6 °F 48.2 °F 82% 29.42 in 6.2 mi SW 19.6 mph - N/A   Mostly Cloudy
9:00 AM 53.6 °F 48.2 °F 82% 29.42 in 6.2 mi SW 19.6 mph - N/A   Mostly Cloudy
9:30 AM 53.6 °F 50.0 °F 88% 29.44 in 6.2 mi WSW 18.4 mph 29.9 mph N/A Rain Light Rain Showers
10:00 AM 55.4 °F 50.0 °F 82% 29.42 in 6.2 mi SW 20.7 mph - N/A   Scattered Clouds
10:30 AM 55.4 °F 50.0 °F 82% 29.42 in 6.2 mi WSW 19.6 mph 31.1 mph N/A Rain Light Rain Showers
11:00 AM 59.0 °F 51.8 °F 77% 29.42 in 6.2 mi WSW 24.2 mph - N/A   Partly Cloudy
11:30 AM 57.2 °F 50.0 °F 77% 29.42 in 6.2 mi WSW 23.0 mph 34.5 mph N/A Rain Light Rain Showers
12:00 PM 59.0 °F 50.0 °F 72% 29.42 in 6.2 mi WSW 23.0 mph - N/A   Partly Cloudy
12:30 PM 59.0 °F 51.8 °F 77% 29.42 in 6.2 mi WSW 21.9 mph - N/A   Mostly Cloudy
1:00 PM 59 °F 52 °F 70% 29.42 in 22 mi WSW 20.1 mph - - Rain Light Rain Showers
1:00 PM 60.8 °F 51.8 °F 72% 29.42 in 6.2 mi WSW 19.6 mph - N/A   Partly Cloudy
1:30 PM 60.8 °F 50.0 °F 68% 29.42 in 6.2 mi WSW 27.6 mph 39.1 mph N/A   Partly Cloudy
2:00 PM 59.0 °F 51.8 °F 77% 29.42 in 6.2 mi WSW 28.8 mph 40.3 mph N/A   Partly Cloudy
2:30 PM 59.0 °F 51.8 °F 77% 29.42 in 6.2 mi WSW 24.2 mph - N/A   Partly Cloudy
3:00 PM 60.8 °F 50.0 °F 68% 29.42 in 6.2 mi WSW 27.6 mph - N/A   Mostly Cloudy
3:30 PM 60.8 °F 50.0 °F 68% 29.42 in 6.2 mi WSW 26.5 mph 39.1 mph N/A   Partly Cloudy
4:00 PM 55.4 °F 51.8 °F 88% 29.42 in 6.2 mi West 23.0 mph - N/A Rain Light Rain Showers
4:30 PM 53.6 °F 51.8 °F 94% 29.44 in 6.2 mi West 24.2 mph - N/A Rain Light Rain Showers
5:00 PM 57.2 °F 53.6 °F 88% 29.42 in 6.2 mi West 20.7 mph - N/A   Scattered Clouds
5:30 PM 57.2 °F 51.8 °F 82% 29.42 in 6.2 mi West 23.0 mph - N/A   Scattered Clouds
6:00 PM 57.2 °F 50.0 °F 77% 29.44 in 6.2 mi WSW 26.5 mph - N/A   Mostly Cloudy
6:30 PM 57.2 °F 50.0 °F 77% 29.44 in 6.2 mi West 21.9 mph - N/A Rain Light Rain Showers
7:00 PM 57 °F 50 °F 70% 29.45 in 25 mi West 26.8 mph - - Rain Light Rain Showers
7:00 PM 57.2 °F 50.0 °F 77% 29.44 in 6.2 mi West 26.5 mph - N/A   Scattered Clouds
7:30 PM 57.2 °F 50.0 °F 77% 29.44 in 6.2 mi West 24.2 mph - N/A   Mostly Cloudy
8:00 PM 55.4 °F 50.0 °F 82% 29.44 in 6.2 mi WSW 25.3 mph - N/A Rain Light Rain Showers
8:30 PM 55.4 °F 51.8 °F 88% 29.47 in 6.2 mi West 20.7 mph - N/A Rain Light Rain Showers
9:00 PM 53.6 °F 51.8 °F 94% 29.47 in 6.2 mi WSW 17.3 mph - N/A Rain Light Rain Showers
9:30 PM 53.6 °F 51.8 °F 94% 29.50 in 6.2 mi West 15.0 mph - N/A   Mostly Cloudy
10:00 PM 53.6 °F 51.8 °F 94% 29.53 in 6.2 mi West 16.1 mph - N/A   Mostly Cloudy
10:30 PM 53.6 °F 50.0 °F 88% 29.53 in 6.2 mi West 15.0 mph - N/A   Scattered Clouds
11:00 PM 53.6 °F 50.0 °F 88% 29.56 in 6.2 mi West 16.1 mph - N/A   Mostly Cloudy
11:30 PM 53.6 °F 50.0 °F 88% 29.56 in 6.2 mi West 17.3 mph - N/A   Mostly Cloudy